STARLINK-34267, 65080

Orbit data source: Space-Track

STARLINK-34267, 65080 is a payload satellite owned by SpaceX/Seattle (US) in LEO that was launched on Mon, 04 Aug 2025 UTC via an FALCON 9 launch vehicle from the Air Force Eastern Test Range (AFETR). Payload-class satellites include a variety of spacecraft equipped with specific instruments for various scientific and technological missions. These include communications satellites like Starlink; space stations such as the ISS; scientific satellites like the Hubble; Earth observation satellites from companies like Planet Labs, Umbra, and HawkEye 360; GPS; miniature CubeSats for education and research; and military/defense satellites.

Loading next visibility...
Identifier
65080, 2025-167C
Orbit
LEO
Country
Flag of USUS
Related business
Manufacturer
SpaceX/Seattle
Mission
Operational Commercial Communications
Bus & Motor
STARLINK V2MO, Unknown motor
Mass
575 kg wet, ~530 kg dry
Launch date (UTC)
2025-08-04 (9 months ago)
Launch vehicle
FALCON 9
Launch site
Air Force Eastern Test Range (AFETR)
Object type
Payload
Rocket body
Debris
Shape & HBR
Box + 2 Pan, 17.7 m
Radar Cross Section
36.964 m², Large (>1 m²)

Expand to show TLE details & history
Last TLE update: 12 hours ago

TLE from 12 hours ago
0 STARLINK-34267
1 65080U 25167C   26127.27924721  .00220208  00000-0  63582-2 0  9992
2 65080  53.1608 112.1858 0001883  56.9855 303.1329 15.34307761 43700
Epoch: 2026-05-07T06:42Z
TLE epoch observation values (Epoch: 2026-05-07T06:42:06.958Z)
Latitude
0.00001°
Longitude
146.52915°
Altitude
463.175 km
Speed
7.637 km/s
True Right ascension
07h 28m 44s
True Declination
0° 00' 00"
Sunlit
Object was in daylight at epoch
Visualization orbit readout
Latitude
Unknown
Longitude
Unknown
Altitude
Unknown
Speed
Unknown
Apparent Right ascension
Unknown
Apparent Declination
Unknown
Sunlit
N/A
Visualization observer readout
Local Sidereal Time
02:57:28
Azimuth
Unknown
Elevation
Unknown
Doppler factor
Unknown
Orbital elements
Apogee altitude
464.522 km
Perigee altitude
461.946 km
Semi-major axis
6,841.371 km
Eccentricity
0.00019
Inclination
53.1608°
RAAN
112.1858°
Arg. of periapsis
56.9855°
True anomaly
303.11483°
Mean anomaly
303.1329°
Eccentric anomaly
303.12386°
Mean motion
3.83556 °/min
Orbital period
93.86 mins
BSTAR
0.0063582
Loading maneuver chart data...
Computing Atmospheric mass density...
Loading historical data...
Loading historical data...
Loading historical data...
Loading historical data...
Loading historical data...
Loading historical data...
Loading historical data...

Documentation

Showing up to 5 results
|